Iridium
NORAD ID: 25108
Int'l Code: 1997-082E
Perigee: 783.1 km
Apogee: 786.5 km
Inclination: 86.4 °
Period: 100.4 minutes
Semi major axis: 7155 km
Launch date: December 20, 1997
Source: United States (US)
Two Line Element Set (TLE):
1 25108U 97082E 13145.50684431 .00000106 00000-0 30773-4 0 3015
2 25108 086.3967 155.6043 0002388 108.3764 054.0844 14.34214962807715
Source: AFSPC
NASA's NSSDC Master Catalog entry for IRIDIUM 49